Regional Weather Roundup
Issued by NWS

Home | Current Version | Previous Version | Text Only | Print | Product List | Glossary Off
Versions: 1 2 3 4 5 6 7 8 9 10 11 12 13 14 15 16 17 18 19 20 21 22 23 24 25 26 27 28

000
ASUS45 KTFX 020410
RWRMT
MONTANA REGIONAL WEATHER ROUNDUP
NATIONAL WEATHER SERVICE GREAT FALLS MT
900 PM MST THU DEC 01 2016

NOTE: "FAIR" INDICATES FEW OR NO CLOUDS BELOW 12000 FEET WITH NO
SIGNIFICANT WEATHER AND/OR OBSTRUCTIONS TO VISIBILITY.

MTZ001>007-043-020500-
WEST OF THE DIVIDE

CITY           SKY/WX    TMP DP  RH WIND       PRES   REMARKS
KALISPELL      CLOUDY    33  32  96 CALM      30.13R FOG
MISSOULA       MIX PCPN  32  31  96 NW3       30.17S
BUTTE          LGT SNOW  25  19  78 CALM      30.06R
MULLAN PASS    CLOUDY    22  19  89 VRB7      30.08R FOG     WCI  13
ANACONDA         N/A     27  23  86 W3        30.09R
DEER LODGE       N/A     27  27 100 NE5       30.12R
EUREKA           N/A     30  28  93 CALM      30.16R
HAMILTON         N/A     34  21  60 SE3       30.15R
LIBBY            N/A     30  30 100 CALM      30.15R
PLAINS           N/A     34  27  76 CALM      30.17R
RONAN            N/A     32  29  89 CALM      30.17R
THOMPSON FALLS   N/A     34  30  85 CALM      30.22R
$$

MTZ008-052>055-020500-
SOUTHWEST MONTANA

CITY           SKY/WX    TMP DP  RH WIND       PRES   REMARKS
BOZEMAN        CLOUDY    29  27  92 S3        30.08R
DILLON         CLOUDY    27  16  63 S9        30.06R WCI  18
W YELLOWSTONE  CLOUDY    18  16  93 SW8       30.03S WCI   7
ENNIS          CLOUDY    27  23  86 E5        30.10S
THREE FORKS      N/A     29  29 100 CALM      30.06R
TWIN BRIDGES     N/A     27  19  71 SE2       30.05R
$$

MTZ009-010-012-014-046-048-049-054-020500-
EAST SLOPES AND CENTRAL MONTANA

CITY           SKY/WX    TMP DP  RH WIND       PRES   REMARKS
CUT BANK       MOCLDY    29  27  92 NW13      30.03S WCI  19
GREAT FALLS    LGT SNOW  30  28  92 W7        30.07R FOG     WCI  23
MALMSTROM AFB  FLURRIES  30  31 100 W6        30.08R WCI  24
HELENA         CLOUDY    33  22  63 W7        30.07R WCI  27
AUGUSTA        LGT SNOW  27  28 100 W3        30.05R
BOWMANS CRNR   LGT SNOW  28  27  98 N5        30.04R
CHOTEAU          N/A     30  30 100 CALM      30.08R FOG
CONRAD           N/A     31  31 100 NW6       30.07R WCI  25
FAIRFIELD      LGT SNOW  29  27  94 W2        30.06R
POWER          FLURRIES  28  28  99 W8        30.05R WCI  20
RAYNESFORD     LGT SNOW  29  29  96 W7        30.05R WCI  22
ULM            LGT SNOW  30  30  99 N9        30.08R WCI  22
$$

MTZ011-013-016-021-045-047-050-051-020500-
NORTH CENTRAL MONTANA

CITY           SKY/WX    TMP DP  RH WIND       PRES   REMARKS
HAVRE          CLOUDY    31  31 100 W6        30.05R WCI  25
LEWISTOWN      LGT SNOW  28  25  88 W6        30.02R FOG     WCI  22
N BAR RANCH      N/A     25  21  86 NW6       30.01S WCI  18
CHINOOK          N/A     32  32 100 W3        30.05R
DENTON         FLURRIES  30  27  87 W17G24    30.01R WCI  18
GEYSER         MOCLDY    29  28  93 W8        30.03R WCI  21
GRASS RANGE      N/A     28  25  91 W14       29.99R WCI  16
JUDITH GAP       N/A     24  23  99 W6        30.00S FOG     WCI  16
ROY              N/A     25  23  93 MISG      30.00R
STANFORD       FLURRIES  28  26  94 W3        30.02R
WINIFRED       CLOUDY    29  27  91 MISG      30.02R
$$

MTZ017>020-022>027-061-062-020500-
NORTHEAST MONTANA

CITY           SKY/WX    TMP DP  RH WIND       PRES   REMARKS
GLASGOW        CLOUDY    28  24  85 E3        30.03R
JORDAN           N/A     19  15  84 W5        30.02R
SIDNEY         CLOUDY    16  14  92 NW3       30.06R
WOLF POINT     CLOUDY    26  23  88 NE5       30.05R
PLENTYWOOD       N/A     27  25  93 SE3       30.04
SCOBEY           N/A     22  16  78 CALM      30.00R
$$

MTZ028>42-056>058-020500-
SOUTHCENTRAL AND SOUTHEAST MONTANA

CITY           SKY/WX    TMP DP  RH WIND       PRES   REMARKS
BAKER          CLOUDY    20  17  88 SE3       30.01R
BILLINGS       CLOUDY    32  22  66 NW12      30.03R WCI  23
LIVINGSTON     CLOUDY    29  23  78 W8        30.04R WCI  21
MILES CITY     PTCLDY    22  17  81 NE3       30.02R
BIG TIMBER     CLOUDY    32  23  69 W18G25    30.04R WCI  20
EKALAKA          N/A     22  15  74 SE3       29.96R
FORSYTH          N/A     28  25  86 W5        30.01R
HARLOWTON      MOCLDY    29  23  78 W15       30.02R WCI  17
LAUREL           N/A     35  18  50 W9        30.01R WCI  28
ROUNDUP          N/A     33  21  61 W1        29.94R
$$

REGIONAL REPORTS...DAKOTAS

CITY           SKY/WX    TMP DP  RH WIND       PRES   REMARKS
WILLISTON      CLOUDY    29  25  85 CALM      30.07R
MINOT          CLOUDY    28  22  78 CALM      30.08R
DICKINSON      CLOUDY    24  22  91 S3        30.02R
BEACH          CLOUDY    25  25 100 S5        30.04S
CROSBY         CLOUDY    27  27 100 S5        30.09S
TIOGA          CLOUDY    25  25 100 E3        30.08R
WATFORD CITY   CLOUDY    27  25  93 E6        30.07R WCI  20
BISMARCK       CLOUDY    27  24  89 NE3       30.09R
GRAND FORKS    CLOUDY    29  23  78 N10       30.07R WCI  20
FARGO          CLOUDY    29  22  75 N10       30.06R WCI  20
BUFFALO SD       N/A     25  23  92 E5        29.94R
RAPID CITY     CLOUDY    24  20  84 CALM      30.01R
$$

REGIONAL REPORTS...WYOMING/IDAHO/WASHINGTON

CITY           SKY/WX    TMP DP  RH WIND       PRES   REMARKS
GILLETTE       CLOUDY    30  23  75 W9        29.98R WCI  22
SHERIDAN       CLOUDY    31  22  69 W9        30.01R WCI  23
BUFFALO WY     CLOUDY    34  21  59 NW8       30.00R WCI  27
CODY           CLOUDY    21  16  81 CALM      30.03R
YELLOWSTONE LA   N/A      5   4  95 CALM      30.01R
IDAHO FALLS    CLOUDY    27  21  78 CALM      30.12R
SALMON         CLOUDY    28  25  86 CALM      30.15R
BOISE          CLEAR     31  25  78 W7        30.22R WCI  24
SPOKANE        FOG       30  29  96 W6        30.23R VSB 1/4 WCI  24
$$

REGIONAL REPORTS...ALBERTA

CITY           SKY/WX    TMP DP  RH WIND       PRES   REMARKS
EDMONTON       CLOUDY    27  25  93 CALM      30.02
CALGARY        MOCLDY    32  23  69 W2        30.02R
LETHBRIDGE     CLOUDY    32  28  86 W7        30.05R WCI  26
MEDICINE HAT   CLEAR     16  14  93 SW5       30.06R FOG
WATERTON GATE    N/A     30  19  64 SW13G21     N/A  WCI  20
MILK RIVER       N/A     27  25  93 W7          N/A  WCI  19
ONEFOUR          N/A     23  23 100 NW12        N/A  WCI  12
$$

REGIONAL REPORTS...SASKATCHEWAN

CITY           SKY/WX    TMP DP  RH WIND       PRES   REMARKS
SWIFT CURRENT  CLOUDY    23  21  93 W12G17    30.00R WCI  12
REGINA         CLOUDY    27  27 100 SE7       30.04S WCI  19
SASKATOON      CLOUDY    28  25  86 N2        30.07R
CYPRESS HILLS    N/A     18  14  86 NW6         N/A  WCI   9
VAL MARIE        N/A     27  23  86 N8          N/A  WCI  18
$$




USA.gov is the U.S. government's official web portal to all federal, state and local government web resources and services.